Weather History for Tampa Macdill AFB, FL

Change the Weather History Date:

Sunday, October 6, 2013

  Actual Average Record
Temperature  
Mean Temperature 81 °F -  
Max Temperature 91 °F 84 °F 91 °F (2002)
Min Temperature 72 °F 69 °F 61 °F (2010)
Cooling Degree Days 16    
Growing Degree Days 31 (Base 50)    
Moisture  
Dew Point 74 °F    
Average Humidity 84    
Maximum Humidity 100    
Minimum Humidity 55    
Precipitation  
Precipitation 0.00 in - - ()
Sea Level Pressure  
Sea Level Pressure 29.95 in    
Wind  
Wind Speed 5 mph (SSE)    
Max Wind Speed 10 mph    
Max Gust Speed -    
Visibility 10 miles    
Events Rain    
Averages and records for this station are not official NWS values.
T = Trace of Precipitation, MM = Missing Value Source: NWS Daily Summary

Daily Weather History Graph

Daily Weather History Graph

Search for Another Location

Airport:

Trip Planner

Search our weather history database for the weather conditions in past years. The results will help you decide how hot, cold, wet, or windy it might be!

Date:

Astronomy

Oct. 06, 2013 Rise Set
Actual Time 7:25 AM EDT 7:10 PM EDT
Civil Twilight 7:02 AM EDT 7:33 PM EDT
Nautical Twilight 6:34 AM EDT 8:00 PM EDT
Astronomical Twilight 6:07 AM EDT 8:27 PM EDT
Moon 8:57 AM EDT (10/6) 8:21 PM EDT (10/6)
Length of Visible Light 12h 31m
Length of Day
11h 44m
Waxing Crescent, 3% of the Moon is Illuminated
Oct 6
Waxing Crescent
Oct 11
First Quarter
Oct 18
Full
Oct 26
Last Quarter
Nov 3
New

Hourly Weather History & Observations

Time (EDT) Temp. Heat Index Dew Point Humidity Pressure Visibility Wind Dir Wind Speed Gust Speed Precip Events Conditions
12:58 AM 75.9 °F - 73.8 °F 93% 30.00 in 10.0 mi SE 4.6 mph - N/A   Clear
1:58 AM 74.7 °F - 73.8 °F 97% 29.99 in 10.0 mi SE 3.5 mph - N/A   Clear
2:13 AM 75.2 °F - 73.4 °F 94% 29.98 in 10.0 mi SE 3.5 mph - N/A Rain Light Rain
2:28 AM 75.2 °F - 73.4 °F 94% 29.98 in 10.0 mi SE 2.3 mph - N/A   Clear
2:58 AM 74.1 °F - 73.8 °F 99% 29.97 in 10.0 mi ESE 3.5 mph - 0.00 in   Clear
3:58 AM 72.9 °F - 72.9 °F 100% 29.95 in 10.0 mi ESE 5.8 mph - N/A   Clear
4:58 AM 73.0 °F - 73.0 °F 100% 29.94 in 10.0 mi SE 3.5 mph - N/A   Clear
5:58 AM 73.4 °F - 73.4 °F 100% 29.95 in 10.0 mi East 5.8 mph - N/A   Clear
6:58 AM 73.4 °F - 73.4 °F 100% 29.96 in 10.0 mi ESE 5.8 mph - N/A   Clear
7:58 AM 73.2 °F - 73.2 °F 100% 29.97 in 10.0 mi ESE 3.5 mph - N/A   Clear
8:58 AM 77.9 °F - 76.6 °F 96% 29.98 in 10.0 mi SE 4.6 mph - N/A   Clear
9:58 AM 81.3 °F 88.3 °F 76.3 °F 85% 29.99 in 10.0 mi SSE 5.8 mph - N/A   Clear
10:58 AM 84.0 °F 93.7 °F 77.0 °F 79% 29.99 in 10.0 mi South 4.6 mph - N/A   Clear
11:58 AM 87.3 °F 98.8 °F 77.0 °F 71% 29.99 in 10.0 mi SSW 3.5 mph - N/A   Clear
12:58 PM 89.2 °F 101.2 °F 76.6 °F 66% 29.96 in 10.0 mi SW 4.6 mph - N/A   Clear
1:58 PM 90.1 °F 102.4 °F 76.6 °F 64% 29.94 in 10.0 mi Variable 5.8 mph - N/A   Clear
2:58 PM 90.1 °F 97.8 °F 72.5 °F 56% 29.92 in 10.0 mi West 6.9 mph - N/A   Clear
3:58 PM 90.7 °F 98.5 °F 72.5 °F 55% 29.90 in 10.0 mi WSW 6.9 mph - N/A   Clear
4:58 PM 89.6 °F 98.2 °F 73.6 °F 59% 29.90 in 10.0 mi WSW 10.4 mph - N/A   Clear
5:58 PM 87.4 °F 96.7 °F 74.7 °F 66% 29.89 in 10.0 mi WSW 10.4 mph - N/A   Clear
6:58 PM 82.9 °F 90.5 °F 75.6 °F 78% 29.90 in 10.0 mi WSW 8.1 mph - N/A   Clear
7:58 PM 80.1 °F 85.2 °F 75.4 °F 86% 29.91 in 10.0 mi West 4.6 mph - N/A   Clear
8:58 PM 79.0 °F - 74.7 °F 87% 29.91 in 10.0 mi West 4.6 mph - N/A   Clear
9:58 PM 77.2 °F - 72.0 °F 84% 29.92 in 10.0 mi WSW 2.3 mph - N/A   Clear
10:58 PM 73.9 °F - 70.2 °F 88% 29.90 in 10.0 mi East 2.3 mph - N/A   Clear
11:58 PM 73.8 °F - 71.8 °F 93% 29.89 in 10.0 mi East 2.3 mph - N/A   Clear